EN

Hourly Weather Trzebcz

Today, 20 April, Tuesday

Time Temperature Precipitation Wind Pressure Humidity
00:00 +8°C° 0 mm 1 mps 749 mmHg 90%
01:00 +7°C° 0 mm 1 mps 749 mmHg 90%
02:00 +7°C° 0 mm 1 mps 749 mmHg 91%
03:00 +7°C° 0 mm 1 mps 749 mmHg 91%
04:00 +6°C° 0 mm 1 mps 749 mmHg 92%
05:00 +7°C° 0 mm 1 mps 749 mmHg 90%
06:00 +8°C° 0 mm 1 mps 749 mmHg 88%
07:00 +9°C° 0 mm 1 mps 749 mmHg 86%
08:00 +11°C° 0.1 mm 1 mps 749 mmHg 79%
09:00 +13°C° 0.1 mm 1 mps 749 mmHg 72%
10:00 +14°C° 0.1 mm 1 mps 748 mmHg 65%
11:00 +15°C° 0.1 mm 1 mps 748 mmHg 58%
12:00 +15°C° 0.1 mm 0 mps 748 mmHg 51%
13:00 +16°C° 0.1 mm 0 mps 747 mmHg 44%
14:00 +18°C° 0 mm 1 mps 747 mmHg 45%
15:00 +18°C° 0 mm 1 mps 747 mmHg 47%
16:00 +18°C° 0 mm 1 mps 747 mmHg 49%
17:00 +15°C° 0.2 mm 1 mps 746 mmHg 57%
18:00 +14°C° 0.2 mm 1 mps 746 mmHg 64%
19:00 +12°C° 0.2 mm 1 mps 746 mmHg 72%
20:00 +12°C° 0 mm 1 mps 746 mmHg 74%
21:00 +10°C° 0 mm 2 mps 746 mmHg 76%
22:00 +10°C° 0 mm 2 mps 746 mmHg 78%
23:00 +9°C° 0 mm 2 mps 746 mmHg 81%

Tomorrow, 21 April, Wednesday

Time Temperature Precipitation Wind Pressure Humidity
00:00 +9°C° 0 mm 2 mps 746 mmHg 84%
01:00 +8°C° 0 mm 2 mps 746 mmHg 88%
02:00 +8°C° 0 mm 2 mps 746 mmHg 89%
03:00 +8°C° 0 mm 2 mps 746 mmHg 90%
04:00 +7°C° 0 mm 3 mps 746 mmHg 91%
05:00 +8°C° 0 mm 3 mps 746 mmHg 87%
06:00 +8°C° 0 mm 3 mps 747 mmHg 82%
07:00 +8°C° 0 mm 3 mps 747 mmHg 78%
08:00 +10°C° 0 mm 4 mps 747 mmHg 71%
09:00 +11°C° 0 mm 4 mps 747 mmHg 65%
10:00 +12°C° 0 mm 4 mps 747 mmHg 58%
11:00 +13°C° 0 mm 4 mps 747 mmHg 52%
12:00 +14°C° 0 mm 5 mps 746 mmHg 46%
13:00 +15°C° 0 mm 5 mps 746 mmHg 41%
14:00 +15°C° 0 mm 5 mps 746 mmHg 41%
15:00 +15°C° 0 mm 4 mps 746 mmHg 42%
16:00 +15°C° 0 mm 4 mps 745 mmHg 42%
17:00 +13°C° 0 mm 4 mps 745 mmHg 48%
18:00 +12°C° 0 mm 3 mps 745 mmHg 53%
19:00 +10°C° 0 mm 3 mps 746 mmHg 59%
20:00 +9°C° 0 mm 3 mps 746 mmHg 66%
21:00 +8°C° 0 mm 4 mps 746 mmHg 73%
22:00 +7°C° 0 mm 4 mps 747 mmHg 81%
23:00 +7°C° 0 mm 4 mps 747 mmHg 79%

Day after tomorrow, 22 April, Thursday

Time Temperature Precipitation Wind Pressure Humidity
00:00 +6°C° 0 mm 4 mps 747 mmHg 78%
01:00 +6°C° 0 mm 4 mps 747 mmHg 76%
02:00 +5°C° 0 mm 5 mps 748 mmHg 75%
03:00 +3°C° 0 mm 5 mps 748 mmHg 73%
04:00 +2°C° 0 mm 5 mps 748 mmHg 71%
05:00 +2°C° 0 mm 5 mps 748 mmHg 69%
06:00 +2°C° 0 mm 6 mps 749 mmHg 68%
07:00 +1°C° 0 mm 6 mps 749 mmHg 66%
08:00 +2°C° 0 mm 6 mps 749 mmHg 63%
09:00 +3°C° 0 mm 6 mps 749 mmHg 59%
10:00 +4°C° 0 mm 7 mps 749 mmHg 56%
11:00 +4°C° 0 mm 7 mps 749 mmHg 56%
12:00 +5°C° 0 mm 7 mps 749 mmHg 56%
13:00 +5°C° 0 mm 7 mps 749 mmHg 56%
14:00 +6°C° 0.1 mm 7 mps 749 mmHg 55%
15:00 +6°C° 0.1 mm 7 mps 749 mmHg 55%
16:00 +8°C° 0.1 mm 6 mps 748 mmHg 54%
17:00 +5°C° 0.2 mm 6 mps 749 mmHg 61%
18:00 +5°C° 0.2 mm 5 mps 749 mmHg 68%
19:00 +4°C° 0.2 mm 4 mps 749 mmHg 76%
20:00 +3°C° 0.1 mm 4 mps 749 mmHg 80%
21:00 +2°C° 0.1 mm 3 mps 750 mmHg 84%
22:00 +2°C° 0.1 mm 3 mps 750 mmHg 89%
23:00 +1°C° 0 mm 3 mps 750 mmHg 90%

23 April, Friday

Time Temperature Precipitation Wind Pressure Humidity
00:00 +1°C° 0 mm 3 mps 751 mmHg 92%
01:00 -1°C° 0 mm 4 mps 751 mmHg 93%
02:00 -1°C° 0 mm 4 mps 751 mmHg 93%
03:00 -1°C° 0 mm 4 mps 751 mmHg 94%
04:00 -1°C° 0 mm 5 mps 751 mmHg 94%
05:00 -1°C° 0 mm 5 mps 752 mmHg 92%
06:00 -1°C° 0 mm 6 mps 752 mmHg 90%
07:00 +1°C° 0 mm 6 mps 752 mmHg 88%
08:00 +1°C° 0 mm 6 mps 752 mmHg 84%
09:00 +1°C° 0 mm 6 mps 753 mmHg 81%
10:00 +1°C° 0 mm 6 mps 753 mmHg 77%
11:00 +2°C° 0 mm 6 mps 753 mmHg 74%
12:00 +3°C° 0 mm 6 mps 753 mmHg 72%
13:00 +3°C° 0 mm 6 mps 753 mmHg 69%
14:00 +4°C° 0.1 mm 6 mps 753 mmHg 64%
15:00 +5°C° 0.1 mm 6 mps 753 mmHg 60%
16:00 +7°C° 0.1 mm 5 mps 753 mmHg 55%
17:00 +6°C° 0.1 mm 4 mps 754 mmHg 61%
18:00 +5°C° 0.1 mm 3 mps 754 mmHg 68%
19:00 +4°C° 0.1 mm 2 mps 754 mmHg 74%
20:00 +4°C° 0 mm 2 mps 754 mmHg 76%
21:00 +3°C° 0 mm 2 mps 754 mmHg 78%
22:00 +4°C° 0 mm 1 mps 755 mmHg 79%
23:00 +2°C° 0 mm 2 mps 755 mmHg 82%

24 April, Saturday

Time Temperature Precipitation Wind Pressure Humidity
00:00 +2°C° 0 mm 2 mps 755 mmHg 85%
01:00 +1°C° 0 mm 2 mps 755 mmHg 88%
02:00 +1°C° 0 mm 2 mps 755 mmHg 88%
03:00 -1°C° 0 mm 3 mps 755 mmHg 89%
04:00 -1°C° 0 mm 3 mps 755 mmHg 89%
05:00 0°C° 0 mm 3 mps 755 mmHg 84%
06:00 +1°C° 0 mm 4 mps 755 mmHg 80%
07:00 +3°C° 0 mm 4 mps 755 mmHg 75%
08:00 +3°C° 0 mm 5 mps 754 mmHg 71%
09:00 +6°C° 0 mm 5 mps 754 mmHg 68%
10:00 +7°C° 0 mm 6 mps 754 mmHg 64%
11:00 +7°C° 0 mm 6 mps 754 mmHg 60%
12:00 +8°C° 0 mm 6 mps 754 mmHg 56%
13:00 +8°C° 0 mm 6 mps 753 mmHg 53%
14:00 +8°C° 0.1 mm 6 mps 753 mmHg 59%
15:00 +7°C° 0.1 mm 6 mps 753 mmHg 65%
16:00 +7°C° 0.1 mm 6 mps 753 mmHg 71%
17:00 +6°C° 0.1 mm 5 mps 753 mmHg 75%
18:00 +5°C° 0.1 mm 4 mps 753 mmHg 79%
19:00 +4°C° 0.1 mm 3 mps 753 mmHg 83%
20:00 +3°C° 0.1 mm 3 mps 753 mmHg 85%
21:00 +4°C° 0.1 mm 2 mps 753 mmHg 86%
22:00 +4°C° 0.1 mm 2 mps 754 mmHg 87%
23:00 +3°C° 0 mm 2 mps 754 mmHg 85%

25 April, Sunday

Time Temperature Precipitation Wind Pressure Humidity
00:00 +2°C° 0 mm 2 mps 754 mmHg 82%
01:00 +2°C° 0 mm 2 mps 754 mmHg 80%
02:00 +1°C° 0 mm 2 mps 754 mmHg 81%
03:00 -1°C° 0 mm 2 mps 754 mmHg 82%
04:00 -2°C° 0 mm 2 mps 754 mmHg 82%
05:00 -1°C° 0 mm 3 mps 754 mmHg 78%
06:00 0°C° 0 mm 3 mps 754 mmHg 75%
07:00 0°C° 0 mm 4 mps 754 mmHg 71%
08:00 +3°C° 0.1 mm 4 mps 754 mmHg 63%
09:00 +4°C° 0.1 mm 4 mps 754 mmHg 56%
10:00 +6°C° 0.1 mm 4 mps 754 mmHg 48%
11:00 +7°C° 0.1 mm 5 mps 754 mmHg 46%
12:00 +7°C° 0.1 mm 5 mps 754 mmHg 45%
13:00 +8°C° 0.1 mm 6 mps 754 mmHg 43%
14:00 +8°C° 0 mm 6 mps 754 mmHg 42%
15:00 +8°C° 0 mm 6 mps 753 mmHg 42%
16:00 +8°C° 0 mm 6 mps 753 mmHg 42%
17:00 +5°C° 0 mm 6 mps 753 mmHg 47%
18:00 +5°C° 0 mm 5 mps 753 mmHg 51%
19:00 +4°C° 0 mm 4 mps 753 mmHg 55%
20:00 +3°C° 0 mm 4 mps 754 mmHg 62%
21:00 +2°C° 0 mm 3 mps 754 mmHg 68%
22:00 +2°C° 0 mm 2 mps 754 mmHg 75%
23:00 0°C° 0 mm 3 mps 754 mmHg 79%
Show more

We Need Your Consent

Meteoprog and our Service Providers may store and access personal data such as cookies, device identifiers or other similar technologies on your device and process such data to personalise content and ads, as well as provide social media features and to analyse the traffic.

  • Store and/or access information on your device

    Cookies, device identifiers or other information can be stored or accessed on your device for the purposes indicated above.

  • Personalised ads and content, ad and content measurement, audience insights, and products development

    Ads and content can be personalised based on a profile. More data can be added to better personalise ads and content. Ad and content performance can be measured. Insights about the audience who saw the ads and content can be derived. Such data can be used to develop or improve user’s experience, systems and software.

By clicking ‘I Agree’ you will allow the use of indicated cookies, device identifiers, web beacons or other similar technologies. Your settings can be changed in the browser on your device.

For certain purposes, legitimate interests may be relied on, rather than consent. You can read more about this in our Privacy and Cookie Policy.